SCP
0 0 0 0 0 0 0 0 0 0 0 0 0 0 0 0 0 0 0 0 0 0 0 0 0 0 0 0 0 0 0 0 0 0 0 0 0 0 0 0 0 0 0
0 0 0 0 0 0 0 0 0 0 0 0 0 0 0 0 0 0 0 0 0 0 0 0 0 0 0 0 0 0 0 0 0 0 0 0 0 0 0 0 0 0 0
0 0 0 0 0 0 0 0 0 0 0 0 0 0 0 0 0 0 0 0 0 0 0 0 0 0 0 0 0 0 0 0 0 0 0 0 0 0 0 0 0 0 0
0 0 0 0 0 0 0 0 0 0 0 0 0 0 0 0 0 0 0 0 0 0 0 0 0 0 0 0 0 0 0 0 0 0 0 0 0 0 0 0 0 0 0
0 0 0 0 0 0 0 0 0 0 0 0 0 0 0 0 0 0 0 0 0 0 0 0 0 0 0 0 0 0 0 0 0 0 0 0 0 0 0 0 0 0 0
0 0 0 0 0 0 0 0 0 0 0 0 0 0 0 0 0 0 0 0 0 0 0 0 0 0 0 0 0 0 0 0 0 0 0 0 0 0 0 0 0 0 0
0 0 0 0 0 0 0 0 0 0 0 0 0 0 0 0 0 0 0 0 0 0 0 0 0 0 0 0 0 0 0 0 0 0 0 0 0 0 0 0 0 0 0
0 0 0 0 0 0 0 0 0 0 0 0 0 0 0 0 0 0 0 0 0 0 0 0 0 0 0 0 0 0 0 0 0 0 0 0 0 0 0 0 0 0 0
0 0 0 0 0 0 0 0 0 0 0 0 0 0 0 0 0 0 0 0 0 0 0 0 0 0 0 0 0 0 0 0 0 0 0 0 0 0 0 0 0 0 0
0 0 0 0 0 0 0 0 0 0 0 0 0 0 0 0 0 0 0 0 0 0 0 0 0 0 0 0 0 0 0 0 0 0 0 0 0 0 0 0 0 0 0
0 0 0 0 0 0 0 0 0 0 0 0 0 0 0 0 0 0 0 0 0 0 0 0 0 0 0 0 0 0 0 0 0 0 0 0 0 0 0 0 0 0 0
0 0 0 0 0 0 0 0 0 0 0 0 0 0 0 0 0 0 0 0 0 0 0 0 0 0 0 0 0 0 0 0 0 0 0 0 0 0 0 0 0 0 0
0 0 0 0 0 0 0 0 0 0 0 0 0 0 0 0 0 0 0 0 0 0 0 0 0 0 0 0 0 0 0 0 0 0 0 0 0 0 0 0 0 0 0
0 0 0 0 0 0 0 0 0 0 0 0 0 0 0 0 0 0 0 0 0 0 0 0 0 0 0 0 0 0 0 0 0 0 0 0 0 0 0 0 0 0 0
0 0 0 0 0 0 0 0 0 0 0 0 0 0 0 0 0 0 0 0 0 0 0 0 0 0 0 0 0 0 0 0 0 0 0 0 0 0 0 0 0 0 0
0 0 0 0 0 0 0 0 0 0 0 0 0 0 0 0 0 0 0 0 0 0 0 0 0 0 0 0 0 0 0 0 0 0 0 0 0 0 0 0 0 0 0
0 0 0 0 0 0 0 0 0 0 0 0 0 0 0 0 0 0 0 0 0 0 0 0 0 0 0 0 0 0 0 0 0 0 0 0 0 0 0 0 0 0 0
0 0 0 0 0 0 0 0 0 0 0 0 0 0 0 0 0 0 0 0 0 0 0 0 0 0 0 0 0 0 0 0 0 0 0 0 0 0 0 0 0 0 0
0 0 0 0 0 0 0 0 0 0 0 0 0 0 0 0 0 0 0 0 0 0 0 0 0 0 0 0 0 0 0 0 0 0 0 0 0 0 0 0 0 0 0
0 0 0 0 0 0 0 0 0 0 0 0 0 0 0 0 0 0 0 0 0 0 0 0 0 0 0 0 0 0 0 0 0 0 0 0 0 0 0 0 0 0 0
0 0 0 0 0 0 0 0 0 0 0 0 0 0 0 0 0 0 0 0 0 0 0 0 0 0 0 0 0 0 0 0 0 0 0 0 0 0 0 0 0 0 0
0 0 0 0 0 0 0 0 0 0 0 0 0 0 0 0 0 0 0 0 0 0 0 0 0 0 0 0 0 0 0 0 0 0 0 0 0 0 0 0 0 0 0
0 0 0 0 0 0 0 0 0 0 0 0 0 0 0 0 0 0 0 0 0 0 0 0 0 0 0 0 0 0 0 0 0 0 0 0 0 0 0 0 0 0 0
0 0 0 0 0 0 0 0 0 0 0 0 0 0 0 0 0 0 0 0 0 0 0 0 0 0 0 0 0 0 0 0 0 0 0 0 0 0 0 0 0 0 0
0 0 0 0 0 0 0 0 0 0 0 0 0 0 0 0 0 0 0 0 0 0 0 0 0 0 0 0 0 0 0 0 0 0 0 0 0 0 0 0 0 0 0
0 0 0 0 0 0 0 0 0 0 0 0 0 0 0 0 0 0 0 0 0 0 0 0 0 0 0 0 0 0 0 0 0 0 0 0 0 0 0 0 0 0 0
Wind_Speed
9 10 10 11 12 12 13 13 14 14 15 16 16 17 17 17 18 18 18 19 19 19 19 19 19 20 20 20 20 20 20 20 21 22 22 22 22 22 22 20 17 13 21
12 12 10 11 12 12 13 13 13 13 15 15 16 16 16 17 17 17 18 18 18 18 19 19 19 19 19 19 18 18 17 17 17 18 20 19 20 21 21 20 19 14 20
14 12 10 11 12 12 12 12 12 13 14 15 15 16 16 16 16 17 17 17 18 18 18 18 18 18 18 18 17 17 16 15 15 16 15 9 13 20 20 20 19 19 19
13 11 11 11 11 12 12 12 12 13 14 15 15 15 16 16 16 17 17 17 18 18 18 18 18 18 17 17 16 16 16 15 15 15 9 9 9 18 19 19 19 19 18
11 11 12 11 11 12 12 12 13 13 14 14 15 15 15 16 16 16 16 17 17 17 17 17 17 17 16 16 14 14 13 12 14 12 8 8 7 16 18 18 17 17 17
11 12 11 11 11 12 12 13 13 13 14 14 14 15 15 15 15 16 16 16 16 16 16 16 16 16 15 14 13 13 14 13 12 8 8 7 6 15 16 16 16 15 15
10 11 10 10 11 11 12 12 13 13 14 14 14 15 15 14 14 15 15 15 15 15 15 15 15 15 14 13 12 12 12 10 8 7 7 6 8 15 15 15 14 14 14
10 11 9 10 10 10 11 12 12 13 13 13 14 14 14 14 14 14 14 14 14 14 14 14 14 14 13 12 10 10 11 9 9 9 7 6 10 13 14 14 13 13 13
10 10 8 7 9 10 11 11 12 12 12 13 13 13 12 12 13 12 12 13 13 13 13 13 13 12 12 10 8 9 10 9 6 6 8 5 10 12 13 13 13 13 12
8 9 9 8 8 7 8 11 12 12 12 12 12 12 12 11 11 10 10 11 12 12 12 11 11 10 9 7 5 6 8 5 6 7 4 5 10 11 12 12 13 13 13
7 7 8 8 8 8 8 10 10 11 11 11 9 11 9 6 6 6 9 10 11 11 10 9 8 8 6 3 2 5 5 3 5 5 4 7 10 11 12 12 12 13 13
7 7 7 8 8 8 8 7 6 6 6 6 5 6 4 4 5 7 8 9 9 8 8 6 5 4 4 2 1 2 2 3 4 4 4 8 10 10 11 12 12 13 13
8 7 6 7 7 7 6 5 4 4 4 5 6 5 5 5 5 5 3 4 4 5 3 3 3 1 2 2 2 2 3 3 3 4 4 8 9 10 11 11 12 13 14
9 8 6 7 7 7 6 5 4 4 3 3 5 5 4 3 4 4 3 4 3 2 2 2 1 2 2 2 2 3 3 3 3 3 4 7 9 10 11 12 13 14 15
9 9 8 7 7 6 5 4 5 5 4 4 4 4 5 3 4 4 3 3 3 3 2 2 2 2 1 2 1 2 2 2 3 4 3 7 9 10 12 12 13 13 14
11 11 9 8 7 6 5 4 4 4 5 5 4 5 5 4 4 4 3 3 3 3 2 2 2 1 1 1 1 1 1 1 3 4 4 5 9 11 12 13 13 14 14
11 11 10 10 8 7 6 6 4 4 4 4 5 6 6 5 5 5 4 3 3 3 3 1 1 1 1 1 1 1 1 1 2 3 4 4 5 10 12 13 13 14 15
10 11 11 9 10 9 7 6 4 5 5 4 5 5 6 6 6 5 4 4 4 3 3 2 2 1 1 1 0 0 1 1 3 3 4 4 4 5 8 13 14 15 15
12 12 12 11 11 10 8 6 5 5 5 5 5 5 6 6 6 5 4 4 5 4 3 3 2 1 1 0 0 0 1 2 3 4 4 5 5 5 5 10 13 15 16
12 12 13 12 11 10 7 5 4 5 5 5 5 6 8 7 7 6 4 5 5 4 3 3 3 2 1 1 0 0 1 2 3 4 5 4 4 5 5 5 5 9 15
11 13 14 14 13 11 9 8 7 7 6 6 5 7 9 9 9 7 5 5 5 5 5 5 4 3 2 2 1 0 0 2 4 4 4 4 5 5 5 5 4 4 5
14 14 14 15 15 13 11 9 7 7 6 6 5 7 9 9 10 8 7 6 6 5 6 6 5 3 3 3 3 2 1 1 1 3 4 4 5 4 5 6 5 5 5
15 16 15 16 16 16 13 8 6 6 5 6 8 8 9 10 10 9 9 7 7 7 6 7 6 6 4 4 3 3 3 3 2 2 4 4 5 4 4 5 5 5 6
17 15 15 16 16 16 15 13 13 12 12 12 9 9 9 11 11 11 10 9 8 7 7 7 7 6 5 4 3 3 2 2 3 3 2 3 4 5 5 4 5 5 5
16 15 15 15 16 16 16 17 16 14 11 8 8 10 11 10 11 11 11 10 10 8 9 8 8 7 6 5 4 3 2 1 2 3 3 3 2 3 4 5 4 3 4
14 14 14 15 17 17 18 18 18 17 14 11 12 12 11 9 10 12 12 11 11 9 9 9 9 9 8 7 5 5 5 4 4 4 4 3 3 3 3 3 4 3 3
Wind_Direction
118 119 125 118 112 106 102 100 99 98 97 96 95 94 91 90 88 87 85 83 81 79 77 76 75 74 73 72 72 72 72 73 72 69 65 64 64 63 61 61 60 54 58
120 121 123 117 113 109 106 104 102 101 100 99 97 95 94 91 89 88 87 85 83 81 80 78 77 76 75 74 74 73 72 72 74 74 68 63 63 62 61 59 60 59 58
118 124 122 116 115 111 108 107 105 103 102 100 98 97 95 94 92 90 88 87 85 83 81 79 79 78 76 75 75 73 69 64 68 72 67 61 61 62 61 59 57 57 56
124 131 122 119 118 115 112 109 106 105 104 102 101 99 97 95 93 92 89 88 86 84 82 81 80 79 78 77 75 71 65 60 70 71 63 56 57 63 61 59 56 54 53
121 117 119 121 120 119 115 113 110 108 106 104 103 101 98 95 93 92 90 89 87 86 84 83 82 81 79 77 72 63 55 57 69 68 67 59 55 63 61 59 56 54 51
117 117 124 123 123 122 119 116 114 112 109 105 104 101 99 96 93 92 91 90 89 87 85 84 82 81 79 75 67 53 45 65 68 65 57 52 52 61 60 58 55 53 50
119 121 128 123 123 123 123 120 116 114 112 108 105 103 101 99 97 95 94 92 91 89 87 86 84 81 77 72 61 43 34 60 79 72 61 47 49 58 58 55 52 49 46
121 122 126 118 119 121 121 119 116 114 113 112 110 107 106 103 101 100 99 96 94 93 91 89 86 82 77 70 56 37 25 39 78 80 66 44 46 53 54 51 48 45 44
124 127 133 132 122 115 114 115 112 110 111 111 110 107 104 102 100 98 99 100 99 96 94 91 89 85 80 71 48 21 11 18 69 70 66 40 38 47 48 45 43 40 37
132 137 145 148 140 129 117 114 112 110 108 108 107 104 103 103 101 98 95 99 101 100 98 96 94 92 88 76 35 359 348 9 70 69 57 32 35 41 44 42 40 38 36
147 151 152 152 148 141 133 125 116 111 112 114 115 124 128 123 115 98 94 99 102 103 104 105 108 111 110 103 14 341 339 62 79 74 52 32 34 38 40 38 36 34 34
165 161 155 153 149 145 140 140 137 132 143 141 146 164 160 119 108 103 94 100 105 108 114 125 140 164 185 189 223 304 359 54 80 83 57 38 36 36 38 37 37 37 38
170 162 160 153 148 144 141 156 154 149 167 157 165 172 121 108 117 119 115 118 123 145 148 169 207 221 86 51 43 44 27 41 68 79 63 49 42 39 40 41 42 42 40
175 170 167 157 154 152 155 158 152 149 159 154 160 153 135 141 149 151 159 169 173 176 163 172 149 96 92 74 50 37 37 47 70 86 75 59 50 48 48 49 48 45 42
179 174 173 167 166 163 159 156 158 155 160 155 153 160 151 148 155 150 153 161 165 151 169 164 140 138 118 86 69 51 40 53 77 87 85 69 62 57 56 54 52 49 47
181 176 175 177 176 170 164 162 164 160 160 153 157 171 165 158 157 151 152 168 162 164 162 159 144 151 135 124 109 85 41 50 92 106 110 83 71 67 62 58 54 52 51
182 177 177 179 182 178 175 175 172 161 160 158 164 173 175 166 162 161 161 174 172 154 143 154 158 158 166 193 200 154 109 69 79 99 112 111 91 72 68 63 60 57 54
182 181 179 180 184 183 182 179 176 167 167 168 165 168 177 175 168 167 165 175 170 158 168 175 186 194 207 212 107 82 105 92 93 89 88 96 103 93 75 72 65 61 57
185 182 182 182 185 185 184 182 182 177 174 174 170 170 178 181 178 171 173 175 168 166 178 173 195 190 182 162 102 50 100 113 116 105 97 90 91 100 98 84 75 66 59
185 182 183 184 187 182 180 182 187 188 184 183 180 178 177 182 184 180 177 176 168 168 181 178 192 183 170 169 139 197 160 142 125 119 113 102 96 95 95 95 85 72 64
185 185 185 186 188 184 185 187 191 196 192 194 192 186 183 183 185 186 179 180 176 178 187 185 180 185 201 171 129 153 100 121 122 126 121 113 104 96 88 82 76 75 67
192 191 190 189 188 189 192 191 192 188 195 196 193 194 192 187 185 190 187 185 183 184 190 189 177 177 188 176 175 164 161 126 132 138 126 125 124 110 100 93 84 77 75
196 196 196 194 191 191 188 186 187 190 193 196 198 200 201 195 190 189 193 190 188 187 192 193 184 179 188 199 194 179 182 192 158 156 148 139 135 124 116 109 98 91 88
200 199 198 197 195 192 189 192 192 196 201 201 196 197 199 200 197 194 194 195 193 192 195 194 192 188 180 185 196 205 192 169 155 162 163 143 136 134 132 123 112 105 101
199 198 199 198 198 195 194 197 199 206 207 198 192 195 198 201 201 198 197 198 198 197 198 194 192 193 190 185 175 173 188 204 180 159 177 173 151 146 138 131 126 117 109
196 195 196 199 203 199 198 200 203 207 205 198 198 200 200 200 202 201 199 201 201 199 198 198 195 195 197 194 184 172 168 173 187 180 178 173 171 163 140 132 129 126 119